Regional Weather Roundup
Issued by NWS Charleston, SC

Current Version | Previous Version | Graphics & Text | Print | Product List | Glossary On
Versions: 1 2 3 4 5 6 7 8 9 10 11 12 13 14 15 16 17 18 19 20 21 22 23 24 25 26 27 28 29 30 31 32 33 34 35 36 37 38 39 40 41 42 43 44 45 46 47 48 49 50
000 ASUS42 KCHS 180010 RWRCHS REGIONAL WEATHER ROUNDUP NATIONAL WEATHER SERVICE CHARLESTON SC 700 PM EST WED DEC 17 2014 NOTE: "FAIR" INDICATES FEW OR NO CLOUDS BELOW 12,000 FEET WITH NO SIGNIFICANT WEATHER AND/OR OBSTRUCTIONS TO VISIBILITY. NOT ALL STATIONS ARE QUALITY CONTROLLED BY THE NATIONAL WEATHER SERVICE. USE DATA WITH CAUTION...ESPECIALLY DEWPOINT OBSERVATIONS. SCZ027-030-031-034>040-042>050-180100- ...SOUTHEAST SOUTH CAROLINA... CITY SKY/WX TMP DP RH WIND PRES REMARKS N CHARLESTON CLEAR 52 41 66 S3 30.11R 6HR MIN TEMP: 50; 6HR MAX TEMP: 65; WATERFRONT PRK N/A 54 N/A N/A SW5 N/A MOUNT PLEASANT FAIR 46 45 93 CALM 30.11R PINOPOLIS N/A 55 45 67 MISG 30.02R MONCKS CORNER FAIR 48 45 87 CALM 30.11R SUMMERVILLE NOT AVBL BEAUFORT MCAS PTCLDY 50 43 77 CALM 30.12R 6HR MIN TEMP: 50; 6HR MAX TEMP: 65; BEAUFORT ARPT FAIR 50 46 87 CALM 30.11R HILTON HEAD IS CLEAR 52 46 82 CALM 30.13R WALTERBORO PTCLDY 46 46 100 CALM 30.13R ALLENDALE MOCLDY 48 43 81 CALM 30.10S ...SOUTHERN MIDLANDS AND PEE DEE... CITY SKY/WX TMP DP RH WIND PRES REMARKS GEORGETOWN NOT AVBL KINGSTREE NOT AVBL ORANGEBURG CLEAR 48 40 73 CALM 30.11R 6HR MIN TEMP: 48; 6HR MAX TEMP: 62; BARNWELL N/A 46 43 87 CALM 30.11S AIKEN FAIR 46 39 76 CALM 30.13S MANNING NOT AVBL COLUMBIA PTCLDY 47 40 76 CALM 30.09S 6HR MIN TEMP: 46; 6HR MAX TEMP: 63; SUMTER CLEAR 52 37 56 W3 30.08R 6HR MIN TEMP: 52; 6HR MAX TEMP: 63; 6HR PCP: TRACE; FLORENCE CLEAR 49 39 68 CALM 30.09R 6HR MIN TEMP: 49; 6HR MAX TEMP: 63; MYRTLE BEACH CLEAR 52 45 76 SW6 30.10R N MYRTLE BEACH CLEAR 49 44 83 SW3 30.09R 6HR MIN TEMP: 49; 6HR MAX TEMP: 63; $$ GAZ063-065-086>088-099>101-113>116-118-119-134>141-150-180100- ...SOUTHEAST GEORGIA... CITY SKY/WX TMP DP RH WIND PRES REMARKS SAVANNAH ARPT MOCLDY 52 41 66 CALM 30.12R 6HR MIN TEMP: 51; 6HR MAX TEMP: 67; HUNTER AAF PTCLDY 51 43 75 CALM 30.10R 6HR MIN TEMP: 51; 6HR MAX TEMP: 65; FORT STEWART PTCLDY 48 43 83 CALM 30.10S 6HR MIN TEMP: 48; 6HR MAX TEMP: 65; STATESBORO PTCLDY 44 44 100 CALM 30.12R SYLVANIA PTCLDY 48 45 89 CALM 30.13R CLAXTON FAIR 46 45 93 CALM 30.13R ...CSRA...CENTRAL AND FAR SOUTHEAST GEORGIA... CITY SKY/WX TMP DP RH WIND PRES REMARKS THOMSON MOCLDY 47 45 91 CALM 30.16R AUGUSTA-BUSH PTCLDY 47 39 74 W5 30.11R 6HR MIN TEMP: 43; 6HR MAX TEMP: 62; AUGUSTA-DANIEL PTCLDY 56 40 55 W3 30.11S SWAINSBORO FAIR 48 46 93 CALM 30.13R VIDALIA PTCLDY 50 43 76 CALM 30.13R EASTMAN FAIR 48 43 84 CALM 30.17R HAZLEHURST FAIR 51 47 86 W3 30.13R ALMA PTCLDY 49 43 80 CALM 30.14R 6HR MIN TEMP: 47; 6HR MAX TEMP: 64; WAYCROSS PTCLDY 52 47 84 W3 30.14R JESUP FAIR 50 46 87 CALM 30.12S BAXLEY FAIR 50 45 81 CALM 30.13R BRUNSWICK PTCLDY 52 43 71 CALM 30.13R SAINT SIMONS PTCLDY 53 44 71 CALM 30.12R 6HR MIN TEMP: 53; 6HR MAX TEMP: 65; $$ SCZ027-028-034-036>038-045-046-048>050-GAZ119-141-180100- ...LAKE AND SUPPLEMENTAL COASTAL OBSERVATIONS... STATION/POSITION TIME TEMP WIND PRES WAVE SWELL AIR SEA DIR/SP/G HT/PER HT/PER/DIR (UTC) (F) (DEG/KT/KT) (MB) (FT/S) (FT/S/D) UPR LAKE MARION NOT AVBL WINYAH BAY 2300 53 240/ 2 1018.0S LAKE MURRAY 2300 52 290/ 2/ 3 1018.6R ACE BASIN NERRS 2300 51 CALM 1018.0F FORT PULASKI 0000 52 57 190/ 2/ 3 1019.9R SAPELO ISLAND NOT AVBL $$ ANZ835-935-AMZ111-154-330-350-352-354-370-450-454-472-180100- ...C-MAN AND BUOY OBSERVATIONS... STATION/POSITION TIME TEMP WIND PRES WAVE SWELL AIR SEA DIR/SP/G HT/PER HT/PER/DIR (UTC) (F) (DEG/KT/KT) (MB) (FT/S) (FT/S/D) BUOY 41004 0000 60 73 260/ 6/ 10 1019.2R 2/11 2/11 BUOY 41008 0000 57 58 200/ 8/ 8 1019.7R 1/11 2/120/11 FOLLY BEACH CMAN 2300 55 200/ 6/ 8 1019.4R CAPERS NEARSHORE 2300 55 220/ 8/ 8 N/A FRIPP NEARSHORE NOT AVBL STATION/POSITION TIME TEMP WIND PRES WAVE SWELL AIR SEA DIR/SP/G HT/PER HT/PER/DIR (UTC) (F) (DEG/KT/KT) (MB) (FT/S) (FT/S/D) 5E ST. MARYS GA 0000 61 N/A 1/11 FRYING PAN BUOY 0000 59 65 260/ 10/ 14 1019.7R 2/10 2/140/10 BUOY 41025 0000 57 1017.8R 3/ 9 CAPE LOOKOUT NC 2300 55 230/ 8/ 11 1017.4R BUOY 41002 NOT AVBL BUOY 41010 0000 70 76 280/ 10/ 14 1020.0S 3/11 2/ 80/11 ST AUGUSTINE FL 0000 59 CALM / 1 1020.9R $$

USA.gov is the U.S. government's official web portal to all federal, state and local government web resources and services.